Location: L�Ave Maria
(50.7161°N, 1.5911°E)
Time: 12:57:48
(UTC+00:00)

COSMOS 2428 - Pass Details

Date: 10 July 2020
Orbit: 844 x 859 km, 70.9° (Epoch: 07 August)

Event Time Altitude Azimuth Distance (km) Brightness Sun altitude
Rises 20:56:57 0° 205° (SSW) 3,391 5.6 -6.9°
Reaches altitude 10° 20:59:23 10° 204° (SSW) 2,460 4.9 -7.1°
Maximum altitude 21:05:02 83° 118° (ESE) 859 2.7 -7.7°
Drops below altitude 10° 21:10:44 10° 31° (NNE) 2,481 5.4 -8.3°
Sets 21:13:12 0° 31° (NNE) 3,422 6.2 -8.5°
